This is the latest recevied weather packets stored in our database for station/object PP5EO-15. If no packets are shown the sender has not sent any weather packets the latest 10 day(s).
| Time | Temp. | Humidity | Pressure | Rain* | Wind** | Luminosity | Snow |
|---|---|---|---|---|---|---|---|
| 1777669594 | 31.67° C | 44% | 1014.4 hPa | - | - | - | - |
| 1777668998 | 32.22° C | 43% | 1014.4 hPa | - | - | - | - |
| 1777668403 | 32.22° C | 42% | 1014.4 hPa | - | - | - | - |
| 1777667808 | 32.78° C | 41% | 1014.3 hPa | - | - | - | - |
| 1777667214 | 33.33° C | 40% | 1014.3 hPa | - | - | - | - |
| 1777666618 | 33.89° C | 38% | 1014.2 hPa | - | - | - | - |
| 1777666024 | 34.44° C | 37% | 1014.2 hPa | - | - | - | - |
| 1777665428 | 35° C | 35% | 1014.2 hPa | - | - | - | - |
| 1777664833 | 35.56° C | 34% | 1014.2 hPa | - | - | - | - |
| 1777664238 | 36.11° C | 34% | 1014.2 hPa | - | - | - | - |
| 1777663643 | 36.67° C | 33% | 1014.2 hPa | - | - | - | - |
| 1777663048 | 36.67° C | 32% | 1014.2 hPa | - | - | - | - |
| 1777662453 | 37.22° C | 31% | 1014.1 hPa | - | - | - | - |
| 1777661858 | 37.78° C | 30% | 1014.2 hPa | - | - | - | - |
| 1777661263 | 38.89° C | 29% | 1014.2 hPa | - | - | - | - |
| 1777660668 | 39.44° C | 28% | 1014.3 hPa | - | - | - | - |
| 1777660073 | 40° C | 27% | 1014.2 hPa | - | - | - | - |
| 1777659481 | 40.56° C | 26% | 1014.3 hPa | - | - | - | - |
| 1777658884 | 41.11° C | 25% | 1014.5 hPa | - | - | - | - |
| 1777658288 | 41.11° C | 25% | 1014.5 hPa | - | - | - | - |
| 1777657693 | 40.56° C | 26% | 1014.5 hPa | - | - | - | - |
| 1777657098 | 40.56° C | 27% | 1014.6 hPa | - | - | - | - |
| 1777656503 | 40.56° C | 26% | 1014.7 hPa | - | - | - | - |
| 1777655908 | 41.67° C | 25% | 1014.9 hPa | - | - | - | - |
| 1777655314 | 41.11° C | 25% | 1015 hPa | - | - | - | - |
* Rain since midnight (hover to see other rain measurements)
** Current wind speed in m/s (hover to see current wind gust speed)